Weather History for Eindhoven, Netherlands

Change the Weather History Date:

Sunday, May 11, 2014

  Actual Average Record
Temperature  
Mean Temperature 52 °F -  
Max Temperature 54 °F 66 °F 86 °F (1998)
Min Temperature 49 °F 47 °F 35 °F (2005)
Degree Days  
Heating Degree Days 14    
Growing Degree Days 2 (Base 50)    
Moisture  
Dew Point 44 °F    
Average Humidity 75    
Maximum Humidity 88    
Minimum Humidity 60    
Precipitation  
Precipitation 0.04 in - - ()
Sea Level Pressure  
Sea Level Pressure 29.60 in    
Wind  
Wind Speed 18 mph ()    
Max Wind Speed 25 mph    
Max Gust Speed 37 mph    
Visibility 7.5 miles    
Events Rain    
Averages and records for this station are not official NWS values.
T = Trace of Precipitation, MM = Missing Value Source: Averaged Metar Reports

Daily Weather History Graph

Daily Weather History Graph

Search for Another Location

Airport:

Trip Planner

Search our weather history database for the weather conditions in past years. The results will help you decide how hot, cold, wet, or windy it might be!

Date:

Astronomy

May. 11, 2014 Rise Set
Actual Time 5:53 AM CEST 9:17 PM CEST
Civil Twilight 5:13 AM CEST 9:57 PM CEST
Nautical Twilight 4:19 AM CEST 10:52 PM CEST
Astronomical Twilight 3:04 AM CEST 12:08 AM CEST
Moon 5:33 PM CEST (5/11) 4:17 AM CEST (5/11)
Length of Visible Light 16h 44m
Length of Day
15h 23m
Waxing Gibbous, 87% of the Moon is Illuminated
May 11
Waxing Gibbous
May 14
Full
May 21
Last Quarter
May 28
New
Jun 5
First Quarter

Hourly Weather History & Observations

Time (CEST) Temp. Dew Point Humidity Pressure Visibility Wind Dir Wind Speed Gust Speed Precip Events Conditions
12:00 AM 53 °F 44 °F 64% 29.62 in 12 mi SW 17.9 mph - - Rain Rain
12:25 AM 53.6 °F 44.6 °F 72% 29.59 in 6.2 mi SW 19.6 mph - N/A   Overcast
12:55 AM 53.6 °F 44.6 °F 72% 29.59 in 6.2 mi SW 18.4 mph - N/A   Overcast
1:00 AM 53 °F 44 °F 63% 29.62 in 11 mi SW 17.9 mph - -   Partly Cloudy
1:25 AM 51.8 °F 44.6 °F 76% 29.59 in 6.2 mi SW 20.7 mph - N/A   Mostly Cloudy
1:55 AM 51.8 °F 42.8 °F 71% 29.59 in 6.2 mi SW 19.6 mph - N/A   Mostly Cloudy
2:00 AM 52 °F 43 °F 63% 29.61 in 11 mi SW 20.1 mph - -   Partly Cloudy
2:25 AM 51.8 °F 42.8 °F 71% 29.59 in 6.2 mi SW 20.7 mph 33.4 mph N/A   Mostly Cloudy
2:55 AM 51.8 °F 42.8 °F 71% 29.59 in 6.2 mi SW 16.1 mph - N/A   Mostly Cloudy
3:00 AM 51 °F 43 °F 67% 29.61 in 11 mi SW 17.9 mph - -   Scattered Clouds
3:25 AM 50.0 °F 42.8 °F 76% 29.59 in 6.2 mi SW 19.6 mph - N/A   Mostly Cloudy
3:55 AM 50.0 °F 42.8 °F 76% 29.59 in 6.2 mi SW 18.4 mph - N/A   Mostly Cloudy
4:00 AM 51 °F 43 °F 66% 29.60 in 13 mi SW 17.9 mph - -   Partly Cloudy
4:25 AM 50.0 °F 42.8 °F 76% 29.56 in 6.2 mi SW 18.4 mph 29.9 mph N/A   Overcast
4:29 AM 50.0 °F 42.8 °F 76% 29.56 in 6.2 mi SW 18.4 mph 29.9 mph N/A   Overcast
4:33 AM 50.0 °F 42.8 °F 76% 29.56 in 6.2 mi SW 17.3 mph - N/A   Mostly Cloudy
4:50 AM 50.0 °F 42.8 °F 76% 29.56 in 6.2 mi SW 18.4 mph - N/A   Mostly Cloudy
4:55 AM 50.0 °F 42.8 °F 76% 29.56 in 6.2 mi SW 19.6 mph - N/A   Mostly Cloudy
4:59 AM 50.0 °F 42.8 °F 76% 29.56 in 6.2 mi SW 19.6 mph - N/A   Mostly Cloudy
5:00 AM 50 °F 43 °F 70% 29.59 in 12 mi SW 20.1 mph - -   Overcast
5:19 AM 50.0 °F 42.8 °F 76% 29.56 in 6.2 mi SW 18.4 mph - N/A   Mostly Cloudy
5:25 AM 50.0 °F 42.8 °F 76% 29.56 in 6.2 mi SW 20.7 mph - N/A   Mostly Cloudy
5:30 AM 50.0 °F 42.8 °F 76% 29.56 in 6.2 mi SW 20.7 mph 32.2 mph N/A   Overcast
5:39 AM 50.0 °F 42.8 °F 76% 29.56 in 6.2 mi SW 20.7 mph 32.2 mph N/A   Mostly Cloudy
5:40 AM 50.0 °F 42.8 °F 76% 29.56 in 6.2 mi SW 20.7 mph - N/A   Overcast
5:47 AM 50.0 °F 42.8 °F 76% 29.56 in 6.2 mi SW 20.7 mph - N/A   Overcast
5:55 AM 50.0 °F 42.8 °F 76% 29.56 in 6.2 mi SW 19.6 mph - N/A   Overcast
6:00 AM 50 °F 43 °F 69% 29.58 in 12 mi SW 20.1 mph - -   Overcast
6:01 AM 50.0 °F 42.8 °F 76% 29.56 in 6.2 mi SW 19.6 mph - N/A   Mostly Cloudy
6:07 AM 50.0 °F 42.8 °F 76% 29.56 in 6.2 mi SW 19.6 mph - N/A   Mostly Cloudy
6:17 AM 50.0 °F 42.8 °F 76% 29.56 in 6.2 mi SW 20.7 mph - N/A   Overcast
6:25 AM 50.0 °F 42.8 °F 76% 29.56 in 6.2 mi SW 20.7 mph - N/A   Mostly Cloudy
6:29 AM 50.0 °F 42.8 °F 76% 29.56 in 6.2 mi SW 20.7 mph - N/A   Mostly Cloudy
6:43 AM 50.0 °F 42.8 °F 76% 29.56 in 6.2 mi SW 20.7 mph - N/A   Mostly Cloudy
6:48 AM 50.0 °F 42.8 °F 76% 29.56 in 6.2 mi SW 20.7 mph - N/A   Overcast
6:55 AM 50.0 °F 42.8 °F 76% 29.56 in 6.2 mi SW 21.9 mph 34.5 mph N/A   Overcast
7:00 AM 50 °F 43 °F 69% 29.58 in 12 mi SW 22.4 mph - -   Overcast
7:13 AM 50.0 °F 42.8 °F 76% 29.56 in 6.2 mi SW 20.7 mph - N/A   Mostly Cloudy
7:19 AM 50.0 °F 42.8 °F 76% 29.56 in 6.2 mi SW 20.7 mph - N/A   Overcast
7:25 AM 50.0 °F 42.8 °F 76% 29.56 in 6.2 mi SW 21.9 mph - N/A   Mostly Cloudy
7:28 AM 50.0 °F 42.8 °F 76% 29.56 in 6.2 mi SW 23.0 mph - N/A   Mostly Cloudy
7:36 AM 50.0 °F 42.8 °F 76% 29.56 in 6.2 mi SW 21.9 mph - N/A   Overcast
7:42 AM 50.0 °F 42.8 °F 76% 29.56 in 6.2 mi SW 21.9 mph - N/A   Mostly Cloudy
7:55 AM 50.0 °F 42.8 °F 76% 29.56 in 6.2 mi SW 23.0 mph - N/A   Overcast
8:00 AM 50 °F 43 °F 68% 29.58 in 12 mi SW 22.4 mph - -   Partly Cloudy
8:06 AM 50.0 °F 42.8 °F 76% 29.56 in 6.2 mi SW 21.9 mph 33.4 mph N/A   Mostly Cloudy
8:10 AM 50.0 °F 42.8 °F 76% 29.56 in 6.2 mi SW 23.0 mph - N/A   Scattered Clouds
8:21 AM 51.8 °F 42.8 °F 71% 29.56 in 6.2 mi SW 23.0 mph - N/A   Scattered Clouds
8:25 AM 51.8 °F 42.8 °F 71% 29.56 in 6.2 mi SW 23.0 mph - N/A   Mostly Cloudy
8:33 AM 51.8 °F 42.8 °F 71% 29.56 in 6.2 mi SW 21.9 mph 34.5 mph N/A   Mostly Cloudy
8:42 AM 51.8 °F 42.8 °F 71% 29.56 in 6.2 mi SW 23.0 mph - N/A   Mostly Cloudy
8:55 AM 51.8 °F 42.8 °F 71% 29.56 in 6.2 mi SW 25.3 mph - N/A   Mostly Cloudy
9:00 AM 52 °F 42 °F 61% 29.59 in 16 mi SW 24.6 mph - -   Partly Cloudy
9:02 AM 51.8 °F 42.8 °F 71% 29.56 in 6.2 mi SW 24.2 mph 35.7 mph N/A   Mostly Cloudy
9:06 AM 53.6 °F 44.6 °F 72% 29.56 in 6.2 mi SW 21.9 mph 34.5 mph N/A   Scattered Clouds
9:10 AM 51.8 °F 42.8 °F 71% 29.56 in 6.2 mi SW 24.2 mph 35.7 mph N/A   Mostly Cloudy
9:19 AM 51.8 °F 42.8 °F 71% 29.56 in 6.2 mi SW 25.3 mph 36.8 mph N/A   Mostly Cloudy
9:25 AM 53.6 °F 44.6 °F 72% 29.56 in 6.2 mi SW 24.2 mph 36.8 mph N/A   Mostly Cloudy
9:29 AM 53.6 °F 44.6 °F 72% 29.56 in 6.2 mi SW 23.0 mph - N/A   Mostly Cloudy
9:47 AM 51.8 °F 42.8 °F 71% 29.56 in 6.2 mi SW 24.2 mph - N/A Rain Light Drizzle
9:51 AM 51.8 °F 42.8 °F 71% 29.56 in 6.2 mi SW 24.2 mph - N/A   Overcast
9:55 AM 51.8 °F 42.8 °F 71% 29.59 in 6.2 mi SW 21.9 mph 33.4 mph N/A   Overcast
10:00 AM 52 °F 43 °F 63% 29.60 in 12 mi SW 22.4 mph - - Rain Rain
10:11 AM 51.8 °F 42.8 °F 71% 29.59 in 6.2 mi SW 24.2 mph - N/A Rain Light Rain
10:15 AM 51.8 °F 42.8 °F 71% 29.59 in 6.2 mi SW 23.0 mph - N/A   Mostly Cloudy
10:25 AM 53.6 °F 44.6 °F 72% 29.59 in 6.2 mi SW 23.0 mph - N/A   Overcast
10:55 AM 53.6 °F 44.6 °F 72% 29.59 in 6.2 mi SW 21.9 mph - N/A   Mostly Cloudy
11:00 AM 52 °F 43 °F 63% 29.60 in 11 mi SW 22.4 mph - - Rain Light Rain Showers
11:25 AM 51.8 °F 44.6 °F 76% 29.56 in 6.2 mi SW 20.7 mph - N/A Rain Drizzle
11:55 AM 51.8 °F 44.6 °F 76% 29.56 in 6.2 mi SW 20.7 mph - N/A Rain Light Rain
12:00 PM 51 °F 44 °F 71% 29.60 in 6 mi WSW 20.1 mph - - Rain Heavy Rain
12:11 PM 50.0 °F 46.4 °F 87% 29.59 in 3.7 mi WSW 16.1 mph - N/A Rain Light Rain
12:21 PM 50.0 °F 46.4 °F 87% 29.59 in 5.6 mi WSW 13.8 mph - N/A Rain Light Rain Showers
12:25 PM 50.0 °F 46.4 °F 87% 29.59 in 5.0 mi WSW 13.8 mph - N/A Rain Light Rain Showers
12:29 PM 50.0 °F 46.4 °F 87% 29.59 in 4.3 mi WSW 16.1 mph - N/A Rain Light Rain Showers
12:35 PM 50.0 °F 46.4 °F 87% 29.59 in 5.6 mi WSW 18.4 mph - N/A Rain Light Rain
12:49 PM 51.8 °F 48.2 °F 88% 29.59 in 6.2 mi WSW 15.0 mph - N/A   Overcast
12:55 PM 51.8 °F 48.2 °F 88% 29.59 in 6.2 mi SW 16.1 mph - N/A   Overcast
1:00 PM 53 °F 48 °F 76% 29.61 in 16 mi SW 17.9 mph - - Rain Rain
1:17 PM 53.6 °F 46.4 °F 77% 29.59 in 6.2 mi SW 17.3 mph - N/A   Mostly Cloudy
1:25 PM 51.8 °F 46.4 °F 82% 29.59 in 6.2 mi WSW 17.3 mph - N/A   Overcast
1:55 PM 53.6 °F 46.4 °F 77% 29.59 in 6.2 mi WSW 17.3 mph 28.8 mph N/A   Mostly Cloudy
2:00 PM 55 °F 45 °F 60% 29.61 in 19 mi WSW 17.9 mph - - Rain Rain
2:25 PM 53.6 °F 44.6 °F 72% 29.59 in 6.2 mi WSW 19.6 mph - N/A   Overcast
2:55 PM 53.6 °F 44.6 °F 72% 29.59 in 6.2 mi West 15.0 mph - N/A Rain Light Drizzle
3:00 PM 53 °F 45 °F 67% 29.62 in 14 mi West 15.7 mph - - Rain Light Drizzle
3:10 PM 51.8 °F 46.4 °F 82% 29.59 in 3.7 mi West 16.1 mph 27.6 mph N/A Rain Rain
3:16 PM 51.8 °F 46.4 °F 82% 29.62 in 5.0 mi West 17.3 mph - N/A Rain Rain
3:25 PM 51.8 °F 46.4 °F 82% 29.62 in 6.2 mi West 19.6 mph 32.2 mph N/A Rain Drizzle
3:35 PM 51.8 °F 46.4 °F 82% 29.62 in 6.2 mi WSW 16.1 mph - N/A   Mostly Cloudy
3:38 PM 51.8 °F 46.4 °F 82% 29.62 in 6.2 mi WSW 16.1 mph - N/A   Mostly Cloudy
3:49 PM 51.8 °F 46.4 °F 82% 29.62 in 6.2 mi WSW 19.6 mph - N/A   Mostly Cloudy
3:55 PM 51.8 °F 46.4 °F 82% 29.62 in 6.2 mi WSW 20.7 mph - N/A Rain Light Rain
4:00 PM 53 °F 46 °F 71% 29.64 in 19 mi WSW 20.1 mph - - Rain Rain
4:02 PM 53.6 °F 46.4 °F 77% 29.62 in 6.2 mi WSW 20.7 mph - N/A   Mostly Cloudy
4:06 PM 53.6 °F 46.4 °F 77% 29.62 in 6.2 mi WSW 19.6 mph - N/A   Mostly Cloudy
4:12 PM 53.6 °F 46.4 °F 77% 29.62 in 6.2 mi WSW 19.6 mph - N/A   Mostly Cloudy
4:16 PM 51.8 °F 46.4 °F 82% 29.62 in 6.2 mi WSW 19.6 mph - N/A   Mostly Cloudy
4:25 PM 51.8 °F 48.2 °F 88% 29.62 in 4.3 mi WSW 19.6 mph - N/A   Heavy Drizzle
4:31 PM 51.8 °F 48.2 °F 88% 29.62 in 6.2 mi WSW 18.4 mph - N/A Rain Light Rain
4:44 PM 51.8 °F 48.2 °F 88% 29.62 in 6.2 mi WSW 17.3 mph - N/A   Mostly Cloudy
4:55 PM 53.6 °F 48.2 °F 82% 29.62 in 6.2 mi WSW 18.4 mph - N/A Rain Light Rain
5:00 PM 54 °F 47 °F 72% 29.65 in 15 mi WSW 17.9 mph - - Rain Light Rain Showers
5:07 PM 55.4 °F 48.2 °F 77% 29.62 in 6.2 mi WSW 18.4 mph - N/A   Mostly Cloudy
5:08 PM 53.6 °F 46.4 °F 77% 29.62 in 6.2 mi WSW 18.4 mph - N/A   Overcast
5:16 PM 53.6 °F 46.4 °F 77% 29.62 in 6.2 mi WSW 18.4 mph - N/A   Mostly Cloudy
5:25 PM 53.6 °F 46.4 °F 77% 29.62 in 6.2 mi WSW 20.7 mph - N/A   Mostly Cloudy
5:46 PM 53.6 °F 46.4 °F 77% 29.62 in 6.2 mi WSW 19.6 mph - N/A Rain Light Drizzle
5:55 PM 53.6 °F 46.4 °F 77% 29.65 in 6.2 mi WSW 16.1 mph - N/A   Mostly Cloudy
5:59 PM 53.6 °F 48.2 °F 82% 29.65 in 6.2 mi WSW 15.0 mph - N/A   Mostly Cloudy
6:00 PM 53 °F 47 °F 74% 29.65 in 15 mi WSW 15.7 mph - - Rain Rain
6:08 PM 53.6 °F 46.4 °F 77% 29.65 in 6.2 mi WSW 15.0 mph - N/A   Mostly Cloudy
6:12 PM 53.6 °F 46.4 °F 77% 29.65 in 6.2 mi WSW 16.1 mph - N/A   Mostly Cloudy
6:25 PM 53.6 °F 46.4 °F 77% 29.65 in 6.2 mi WSW 17.3 mph 28.8 mph N/A   Mostly Cloudy
6:55 PM 53.6 °F 46.4 °F 77% 29.65 in 6.2 mi WSW 16.1 mph - N/A   Mostly Cloudy
7:00 PM 54 °F 46 °F 65% 29.67 in 17 mi WSW 15.7 mph - -   Partly Cloudy
7:25 PM 53.6 °F 46.4 °F 77% 29.65 in 6.2 mi WSW 13.8 mph - N/A   Overcast
7:55 PM 53.6 °F 44.6 °F 72% 29.65 in 6.2 mi WSW 15.0 mph - N/A   Overcast
8:00 PM 54 °F 45 °F 63% 29.67 in 19 mi WSW 13.4 mph - -   Partly Cloudy
8:25 PM 53.6 °F 44.6 °F 72% 29.65 in 6.2 mi WSW 19.6 mph - N/A   Mostly Cloudy
8:55 PM 51.8 °F 44.6 °F 76% 29.68 in 6.2 mi SW 13.8 mph - N/A   Mostly Cloudy
9:00 PM 52 °F 46 °F 71% 29.69 in 13 mi SW 13.4 mph - -   Partly Cloudy
9:25 PM 51.8 °F 46.4 °F 82% 29.68 in 6.2 mi SW 12.7 mph - N/A   Mostly Cloudy
9:55 PM 51.8 °F 44.6 °F 76% 29.68 in 6.2 mi SW 11.5 mph - N/A   Mostly Cloudy
10:00 PM 52 °F 45 °F 70% 29.70 in 15 mi SW 11.2 mph - - Rain Rain
10:25 PM 51.8 °F 44.6 °F 76% 29.68 in 6.2 mi SW 15.0 mph - N/A   Mostly Cloudy
10:55 PM 51.8 °F 42.8 °F 71% 29.68 in 6.2 mi SW 15.0 mph - N/A   Overcast
11:00 PM 52 °F 44 °F 64% 29.70 in 16 mi SW 15.7 mph - -   Partly Cloudy
11:25 PM 51.8 °F 42.8 °F 71% 29.68 in 6.2 mi SW 16.1 mph - N/A   Mostly Cloudy
11:55 PM 51.8 °F 42.8 °F 71% 29.71 in 6.2 mi WSW 15.0 mph - N/A   Overcast